Location: DaVinci Observatory
(43.1080°N, 78.6453°W)
Time: 02:01:48
(UTC-04:00)

OTV 5 (USA 277) - Pass Details

Date: 12 October 2017
Orbit: 404 x 417 km, 43.0° (Epoch: 07 September)

Event Time Altitude Azimuth Distance (km) Brightness Sun altitude
Rises 19:37:19 0° 243° (WSW) 2,348 ? -11.9°
Reaches altitude 10° 19:39:27 10° 238° (WSW) 1,487 ? -12.3°
Maximum altitude 19:42:44 51° 162° (SSE) 530 ? -12.9°
Enters shadow 19:44:25 25° 96° (E) 888 ? -13.2°
